カタログに戻る

STARLINK-37281

運用中通信SSO
NORAD 68773·PAYLOAD·🇺🇸 United States

打ち上げ Apr 19, 2026 から Vandenberg Space Force Base

Loading…

次のパス (今後24時間)

TLE

最新Source: CelesTrak SupGP

元期: Sep 14, 2026, 22:41 UTC

1 68773C 26086H   26257.94562500  .00035627  00000+0  11062-2 0  2577
2 68773  97.2842 293.4272 0001109  85.1138 219.9028 15.33415333    14

AllMySatでSTARLINK-37281をリアルタイム追跡

Download on the App Store